Vorticity
7 6 7 7 6 5 5 5 5 6 6 7 7 8 8 8 7 7 9 9 6 9 9 7 5 3 3 3 7 10 11 9 8 8 7 6 7 8 8 6 3 2 2
5 6 5 6 6 6 4 5 5 6 6 5 7 7 8 8 8 9 11 6 7 8 5 5 6 4 9 8 6 4 3 4 5 8 8 8 7 7 9 11 12 10 7
3 4 8 6 7 6 5 5 5 6 6 5 7 6 8 7 8 8 7 8 7 7 2 8 5 5 4 7 10 12 12 12 8 7 8 8 8 8 8 7 7 8 10
3 5 3 3 5 4 6 6 5 4 5 6 6 5 6 6 6 8 8 9 8 4 7 5 2 7 5 6 7 6 7 8 9 7 5 4 5 7 10 11 10 10 9
5 5 4 3 1 1 4 5 5 6 4 5 6 6 5 4 6 7 7 7 7 8 5 4 8 6 5 6 5 5 4 4 5 7 8 7 6 5 5 5 5 5 5
6 7 8 7 4 4 4 3 4 3 3 4 5 7 6 4 4 5 4 5 7 6 7 8 6 4 5 6 4 4 4 4 5 5 5 6 6 6 7 7 8 8 6
6 6 8 6 7 8 7 5 4 4 4 5 4 5 5 6 7 4 3 5 6 5 6 6 5 6 7 5 4 4 4 4 5 5 5 5 5 5 5 5 5 6 5
6 5 5 7 6 6 6 7 8 5 4 5 5 4 5 5 8 6 4 4 3 12 10 4 4 3 6 5 5 2 5 4 6 6 5 5 5 5 4 5 5 5 6
7 7 8 7 7 7 6 5 6 8 8 6 4 6 8 6 7 7 3 3 4 0 11 10 -10 20 12 6 8 7 8 8 4 1 3 5 -0 -0 7 6 6 6 7
6 5 6 9 10 13 11 8 9 11 6 6 8 8 6 7 4 6 6 6 3 4 -1 -4 2 -4 15 12 14 9 4 1 9 6 11 11 6 10 7 -1 13 5 5
9 8 7 6 5 5 5 6 6 5 7 7 9 0 11 5 6 8 9 3 5 9 4 8 5 5 5 3 -4 7 12 18 16 6 1 3 6 7 0 16 15 5 6
11 11 12 11 9 9 8 7 9 10 11 5 4 5 3 5 5 1 4 3 2 3 4 5 6 1 9 3 1 8 4 -8 -8 15 -5 7 3 8 4 7 22 8 6
8 8 8 7 8 10 10 8 8 8 10 4 11 8 6 5 3 6 2 2 4 2 3 2 3 5 9 4 2 -0 -3 4 4 1 13 -2 7 10 4 -2 -4 21 11
10 11 14 12 7 6 7 8 9 9 8 11 10 4 7 12 7 4 7 7 18 6 5 3 4 4 9 11 8 7 12 15 -3 2 11 -2 -3 2 6 8 2 13 12
11 11 15 17 15 12 13 8 11 6 6 13 10 11 13 7 6 7 5 -1 6 -1 -2 4 24 19 7 8 6 5 2 6 11 10 1 18 16 12 9 9 -3 7 -5
2 13 6 15 12 16 19 18 15 10 13 9 9 9 8 12 8 3 10 10 10 9 18 18 -8 -17 -3 4 5 7 13 16 15 -10 7 8 28 1 16 2 1 -5 12
7 23 26 26 25 26 19 19 26 18 11 9 13 12 8 8 9 7 3 5 -1 -2 17 6 11 3 12 21 11 10 9 -20 9 8 7 -5 4 20 9 11 4 6 13
35 28 34 10 11 19 23 21 21 23 28 13 3 5 11 8 4 3 4 5 4 7 6 6 -3 19 -8 5 16 21 30 -0 17 9 29 4 9 8 2 22 16 11 9
21 35 34 40 21 18 24 26 12 18 19 26 15 15 9 7 9 9 8 11 11 9 18 12 10 15 6 11 -13 12 8 22 4 2 18 12 15 13 16 4 8 8 10
27 19 15 17 25 31 22 19 20 6 10 21 25 15 15 15 14 14 13 12 10 12 6 23 17 12 7 7 8 2 7 16 8 21 14 13 17 15 13 6 4 2 1
27 17 15 34 12 38 28 38 15 8 13 21 27 20 17 16 15 18 20 21 15 19 12 4 6 3 10 18 6 9 16 18 15 11 5 6 2 3 2 1 0 5 9
-0 12 16 30 12 9 44 11 16 20 2 34 14 16 18 17 17 16 12 10 8 -8 -5 5 4 5 9 13 31 30 17 7 5 3 5 5 6 12 17 27 37 41 42
10 14 35 2 18 -9 51 25 30 33 20 4 1 -1 0 5 10 -0 5 9 9 13 16 4 19 15 9 6 2 -0 1 6 7 9 15 30 35 41 37 25 17 14 13
10 14 27 28 18 15 36 7 22 9 31 11 7 -0 10 7 10 2 9 -2 -0 11 17 12 4 6 9 10 10 9 11 16 25 30 33 35 23 14 8 11 15 16 22
13 21 -5 -2 23 8 7 2 10 16 14 20 16 14 12 9 21 18 23 17 6 2 4 7 5 10 5 0 13 27 31 31 34 20 17 14 12 6 13 17 15 13 18
7 11 13 13 9 9 20 24 5 10 11 18 19 20 11 10 6 6 3 3 5 4 3 -0 10 6 11 21 30 31 24 12 13 10 6 12 12 9 5 15 19 13 14
Height
5835 5835 5835 5834 5834 5834 5832 5832 5830 5829 5829 5829 5827 5827 5826 5826 5825 5824 5826 5824 5823 5823 5822 5822 5821 5820 5818 5817 5816 5814 5814 5813 5812 5811 5812 5811 5810 5810 5810 5810 5810 5810 5810
5830 5830 5829 5829 5828 5828 5827 5827 5826 5825 5824 5823 5822 5821 5821 5820 5820 5820 5820 5818 5818 5817 5817 5816 5816 5814 5813 5813 5811 5810 5809 5808 5807 5806 5806 5806 5805 5805 5804 5804 5804 5803 5803
5823 5823 5823 5823 5823 5822 5821 5822 5821 5820 5819 5819 5818 5817 5816 5815 5814 5814 5813 5815 5813 5813 5812 5812 5811 5810 5808 5807 5805 5804 5803 5803 5802 5801 5801 5800 5799 5799 5798 5798 5798 5797 5797
5817 5817 5817 5817 5816 5816 5816 5815 5815 5814 5814 5813 5813 5811 5810 5809 5809 5808 5807 5807 5807 5807 5806 5806 5805 5804 5803 5801 5800 5799 5798 5797 5796 5796 5795 5795 5794 5793 5793 5792 5792 5792 5792
5810 5810 5810 5810 5808 5809 5808 5809 5808 5807 5806 5806 5806 5806 5804 5803 5803 5803 5802 5801 5801 5801 5800 5799 5799 5798 5797 5796 5795 5794 5792 5791 5790 5789 5788 5788 5787 5787 5787 5786 5786 5785 5785
5803 5803 5802 5802 5801 5800 5801 5801 5800 5799 5798 5799 5798 5798 5798 5797 5797 5796 5796 5795 5794 5793 5793 5792 5791 5790 5790 5789 5788 5787 5786 5785 5784 5782 5781 5780 5779 5779 5778 5778 5778 5778 5778
5794 5794 5793 5791 5792 5792 5791 5791 5791 5790 5790 5789 5789 5790 5789 5790 5790 5790 5788 5787 5787 5785 5785 5784 5783 5782 5781 5781 5781 5780 5779 5778 5777 5776 5774 5774 5773 5772 5771 5770 5770 5770 5769
5783 5782 5782 5782 5781 5781 5780 5780 5780 5779 5780 5779 5779 5779 5781 5781 5783 5781 5780 5779 5778 5777 5776 5775 5775 5774 5774 5773 5773 5771 5770 5769 5768 5767 5766 5765 5765 5764 5763 5763 5762 5761 5760
5771 5771 5771 5770 5769 5768 5768 5768 5768 5768 5768 5769 5768 5769 5770 5772 5772 5771 5770 5770 5769 5769 5767 5766 5766 5764 5764 5764 5763 5762 5761 5759 5758 5757 5757 5756 5755 5754 5753 5753 5752 5751 5751
5760 5757 5759 5757 5756 5755 5756 5756 5756 5757 5756 5757 5756 5758 5757 5759 5759 5761 5761 5760 5759 5759 5758 5757 5757 5755 5754 5753 5754 5753 5751 5750 5749 5747 5745 5744 5743 5742 5741 5740 5739 5739 5739
5750 5748 5744 5743 5743 5742 5743 5743 5743 5744 5745 5744 5745 5746 5745 5746 5748 5749 5750 5749 5748 5747 5746 5745 5745 5745 5744 5744 5743 5742 5740 5738 5737 5736 5735 5733 5731 5730 5728 5726 5725 5725 5725
5738 5737 5734 5731 5729 5728 5728 5728 5729 5729 5731 5732 5733 5734 5735 5735 5736 5737 5737 5738 5738 5738 5736 5734 5734 5733 5734 5732 5731 5731 5728 5727 5725 5723 5722 5720 5718 5717 5715 5713 5711 5710 5709
5726 5724 5721 5718 5716 5714 5712 5711 5713 5714 5716 5718 5719 5722 5722 5724 5723 5725 5724 5725 5725 5725 5724 5723 5722 5722 5721 5719 5719 5718 5716 5714 5712 5711 5708 5706 5703 5703 5701 5699 5697 5694 5693
5711 5707 5705 5701 5699 5696 5695 5694 5696 5699 5701 5703 5705 5706 5708 5710 5711 5711 5712 5712 5712 5712 5712 5711 5709 5708 5706 5705 5706 5702 5701 5700 5697 5695 5693 5691 5688 5686 5686 5684 5682 5679 5676
5695 5690 5686 5684 5681 5678 5677 5677 5679 5682 5683 5687 5689 5690 5693 5696 5698 5698 5699 5700 5696 5696 5698 5699 5694 5689 5690 5691 5690 5688 5685 5683 5681 5678 5676 5673 5671 5669 5667 5666 5664 5661 5658
5677 5671 5666 5662 5661 5658 5657 5658 5661 5664 5666 5670 5672 5674 5677 5681 5683 5684 5686 5686 5685 5683 5685 5685 5681 5677 5676 5676 5675 5673 5668 5665 5665 5661 5657 5656 5653 5651 5650 5648 5645 5642 5639
5659 5650 5641 5638 5635 5637 5638 5639 5641 5645 5649 5653 5656 5660 5662 5666 5669 5671 5673 5674 5674 5673 5673 5671 5667 5664 5661 5659 5656 5654 5650 5647 5648 5643 5640 5636 5633 5631 5630 5628 5624 5622 5619
5640 5631 5624 5621 5619 5617 5618 5621 5624 5627 5631 5637 5641 5644 5647 5651 5654 5656 5658 5659 5659 5658 5657 5655 5649 5648 5643 5642 5640 5636 5632 5631 5628 5625 5619 5618 5614 5612 5609 5605 5602 5600 5598
5629 5619 5612 5605 5603 5601 5602 5605 5608 5612 5616 5620 5626 5631 5634 5637 5640 5642 5643 5643 5643 5642 5640 5637 5635 5632 5629 5626 5623 5619 5615 5612 5609 5605 5601 5597 5593 5590 5587 5585 5582 5580 5577
5621 5612 5604 5597 5592 5588 5587 5591 5595 5600 5605 5608 5613 5618 5622 5626 5628 5630 5630 5630 5629 5628 5626 5622 5620 5617 5614 5610 5607 5602 5598 5594 5590 5584 5580 5577 5573 5569 5566 5562 5558 5554 5550
5615 5607 5600 5592 5585 5579 5578 5580 5587 5590 5594 5598 5603 5608 5612 5615 5617 5619 5619 5618 5616 5615 5612 5610 5606 5603 5598 5594 5590 5585 5581 5576 5570 5564 5561 5555 5552 5548 5542 5536 5531 5527 5522
5611 5601 5596 5589 5582 5579 5575 5577 5578 5580 5585 5590 5596 5602 5605 5607 5608 5608 5607 5606 5605 5602 5599 5596 5592 5587 5582 5577 5572 5567 5562 5557 5551 5544 5543 5532 5531 5524 5517 5510 5504 5500 5497
5611 5601 5593 5588 5582 5579 5575 5574 5576 5579 5582 5586 5590 5594 5597 5598 5598 5598 5597 5595 5593 5590 5586 5583 5578 5572 5568 5562 5557 5550 5543 5536 5528 5524 5521 5509 5506 5501 5494 5487 5484 5482 5480
5609 5602 5594 5588 5584 5582 5579 5578 5579 5580 5581 5584 5586 5588 5590 5590 5590 5589 5587 5584 5581 5578 5574 5570 5565 5558 5551 5545 5538 5530 5523 5515 5508 5503 5502 5496 5489 5486 5480 5471 5467 5466 5463
5608 5602 5597 5593 5588 5584 5581 5581 5580 5580 5581 5582 5583 5584 5584 5583 5581 5579 5576 5574 5570 5566 5562 5555 5548 5541 5534 5527 5519 5511 5504 5498 5491 5488 5486 5482 5477 5476 5467 5457 5453 5450 5449
5606 5602 5597 5593 5589 5585 5582 5580 5580 5580 5579 5579 5579 5578 5577 5575 5573 5571 5568 5564 5558 5552 5546 5540 5533 5524 5516 5508 5500 5493 5488 5484 5481 5475 5475 5469 5463 5462 5462 5445 5439 5435 5434